Simultaneous Nadir Overpasses (SNOs) Predictions

Prediction of SNOs between AQUA and METOP-A Satellite Orbit:

Table of predicted SNOs for the next 14.0 days since TLE Epoch: 1/25/2014
Index Date (AQUA) Time (AQUA) Lat,Lon (AQUA) SZA (AQUA ) Date (METOP-A) Time (METOP-A) Lat,Lon (METOP-A) SZA (METOP-A ) Distance(km) Time Diff (sec)
1 01/27/2014 04:36:15 -73.87, -74.90 87.56 01/27/2014 04:35:22 -73.89, -74.83 87.53 3.14 53
2 01/27/2014 05:25:44 73.94, 92.57 92.52 01/27/2014 05:26:01 73.95, 92.65 92.52 2.50 17
3 01/27/2014 06:15:23 -74.63,-101.42 86.74 01/27/2014 06:16:28 -74.65, -98.24 86.86 93.69 65
4 01/30/2014 00:10:30 -73.86, -8.44 88.31 01/30/2014 00:09:42 -73.86, -8.49 88.30 1.77 48
5 01/30/2014 00:59:59 73.94, 159.03 91.77 01/30/2014 01:00:21 73.91, 158.97 91.75 3.11 22
6 02/01/2014 19:44:46 -73.89, 57.94 89.06 02/01/2014 19:44:02 -73.87, 57.94 89.07 2.18 44
7 02/01/2014 20:34:14 73.92,-134.49 90.97 02/01/2014 20:34:41 73.92,-134.60 90.97 3.49 27
8 02/04/2014 15:19:01 -73.90, 124.35 89.87 02/04/2014 15:18:22 -73.87, 124.36 89.89 3.52 39
9 02/04/2014 16:08:29 73.94, -68.09 90.16 02/04/2014 16:09:00 73.97, -68.07 90.19 3.59 31
10 02/07/2014 10:53:14 -73.91,-169.21 90.73 02/07/2014 10:52:40 -73.92,-169.11 90.71 3.31 34
11 02/07/2014 11:42:42 73.94, -1.65 89.31 02/07/2014 11:43:19 73.96, -1.67 89.32 2.10 37




NCC Satellite Simultaneous Nadir Overpasses (SNOs) Prediction Service
